Location: ??????
(38.1303°N, 24.0039°E)
Time: 07:12:19
(UTC+00:00)

CZ-2D R/B - Pass Details

Date: 20 June 2021
Orbit: 791 x 845 km, 98.7° (Epoch: 23 July)

Event Time Altitude Azimuth Distance (km) Brightness Sun altitude
Rises 01:34:41 0° 351° (N) 3,297 5.8 -14.1°
Reaches altitude 10° 01:38:31 10° 322° (NW) 2,362 4.6 -13.6°
Maximum altitude 01:40:28 12° 300° (WNW) 2,212 4.2 -13.3°
Drops below altitude 10° 01:42:24 10° 277° (W) 2,360 4.2 -13.1°
Enters shadow 01:43:15 - 269° (W) 2,505 4.2 -12.9°
